| time (UTC) | temp C | wind direction | speed KPH | gust KPH | rain 1hr cm | rain 24hr cm | rain mn cm | humidity % | barometer mb |
| 20260903161535 | 30 | 122 | 0.0 | 0.0 | 0.00 | 0.00 | 0.00 | 52 | 1010.6 |
| 20260903160548 | 30 | 45 | 0.0 | 0.0 | 0.00 | 0.00 | 0.00 | 52 | 1010.6 |
| 20260903155623 | 30 | 56 | 0.0 | 1.6 | 0.00 | 0.00 | 0.00 | 52 | 1010.6 |
| 20260903154530 | 30 | 66 | 1.6 | 1.6 | 0.00 | 0.00 | 0.00 | 53 | 1010.6 |
| 20260903153527 | 30 | 21 | 0.0 | 1.6 | 0.00 | 0.00 | 0.00 | 53 | 1010.5 |
| 20260903152547 | 30 | 59 | 1.6 | 1.6 | 0.00 | 0.00 | 0.00 | 54 | 1010.6 |
| 20260903151524 | 30 | 27 | 1.6 | 1.6 | 0.00 | 0.00 | 0.00 | 54 | 1010.6 |
| 20260903150522 | 29 | 39 | 1.6 | 1.6 | 0.00 | 0.00 | 0.00 | 55 | 1010.6 |
| 20260903145520 | 28 | 46 | 0.0 | 1.6 | 0.00 | 0.00 | 0.00 | 55 | 1010.7 |
| 20260903144531 | 28 | 33 | 0.0 | 0.0 | 0.00 | 0.00 | 0.00 | 55 | 1010.7 |
| 20260903143538 | 28 | 27 | 1.6 | 1.6 | 0.00 | 0.00 | 0.00 | 55 | 1010.8 |
| 20260903142522 | 28 | 328 | 1.6 | 1.6 | 0.00 | 0.00 | 0.00 | 55 | |
| 20260903141537 | 28 | 345 | 1.6 | 1.6 | 0.00 | 0.00 | 0.00 | 55 | 1011.0 |
| 20260903140523 | 28 | 310 | 1.6 | 1.6 | 0.00 | 0.00 | 0.00 | 55 | 1010.8 |
| 20260903135529 | 28 | 339 | 1.6 | 1.6 | 0.00 | 0.00 | 0.00 | 55 | 1010.8 |
| 20260903134536 | 28 | 322 | 0.0 | 1.6 | 0.00 | 0.00 | 0.00 | 55 | 1010.7 |
| 20260903133541 | 28 | 312 | 0.0 | 0.0 | 0.00 | 0.00 | 0.00 | 55 | 1010.6 |
| 20260903132533 | 28 | 306 | 0.0 | 0.0 | 0.00 | 0.00 | 0.00 | 55 | 1010.6 |
| 20260903131520 | 28 | 0.0 | 0.0 | 0.00 | 0.00 | 0.00 | 55 | 1010.3 | |
| 20260903130526 | 28 | 0.0 | 0.0 | 0.00 | 0.00 | 0.00 | 55 | 1010.2 | |
| 20260903125552 | 28 | 0.0 | 0.0 | 0.00 | 0.00 | 0.00 | 55 | 1010.1 | |
| 20260903124538 | 28 | 195 | 0.0 | 0.0 | 0.00 | 0.00 | 0.00 | 55 | 1010.0 |
| 20260903123551 | 28 | 245 | 1.6 | 3.2 | 0.00 | 0.00 | 0.00 | 55 | 1009.9 |
| 20260903122532 | 28 | 211 | 1.6 | 1.6 | 0.00 | 0.00 | 0.00 | 55 | 1009.6 |
| 20260903121544 | 28 | 222 | 0.0 | 1.6 | 0.00 | 0.00 | 0.00 | 55 | 1009.6 |
| 20260903120529 | 28 | 183 | 0.0 | 0.0 | 0.00 | 0.00 | 0.00 | 55 | 1009.5 |
| 20260903115527 | 28 | 158 | 0.0 | 0.0 | 0.00 | 0.00 | 0.00 | 55 | 1009.3 |
| 20260903114526 | 28 | 149 | 0.0 | 1.6 | 0.00 | 0.00 | 0.00 | 55 | 1009.2 |
| 20260903113523 | 28 | 201 | 0.0 | 1.6 | 0.00 | 0.00 | 0.00 | 55 | 1009.2 |
| 20260903112521 | 28 | 103 | 0.0 | 1.6 | 0.00 | 0.00 | 0.00 | 55 | 1009.2 |
| 20260903111519 | 28 | 172 | 1.6 | 1.6 | 0.00 | 0.00 | 0.00 | 55 | 1009.2 |
| 20260903110532 | 28 | 132 | 1.6 | 1.6 | 0.00 | 0.00 | 0.00 | 55 | 1009.2 |
| 20260903105523 | 28 | 147 | 1.6 | 1.6 | 0.00 | 0.00 | 0.00 | 55 | 1009.2 |
| 20260903104539 | 28 | 153 | 1.6 | 1.6 | 0.00 | 0.00 | 0.00 | 55 | 1009.3 |
| 20260903103551 | 28 | 209 | 1.6 | 1.6 | 0.00 | 0.00 | 0.00 | 54 | 1009.4 |
| 20260903102524 | 28 | 189 | 0.0 | 1.6 | 0.00 | 0.00 | 0.00 | 54 | 1009.4 |
| 20260903101529 | 28 | 174 | 1.6 | 1.6 | 0.00 | 0.00 | 0.00 | 54 | 1009.5 |
| 20260903100520 | 29 | 148 | 1.6 | 1.6 | 0.00 | 0.00 | 0.00 | 54 | 1009.5 |
| 20260903095615 | 29 | 141 | 0.0 | 1.6 | 0.00 | 0.00 | 0.00 | 53 | 1009.4 |
| 20260903094520 | 29 | 0.0 | 0.0 | 0.00 | 0.00 | 0.00 | 53 | 1009.4 | |
| 20260903093521 | 30 | 0.0 | 0.0 | 0.00 | 0.00 | 0.00 | 53 | 1009.4 | |
| 20260903092526 | 30 | 0.0 | 0.0 | 0.00 | 0.00 | 0.00 | 53 | 1009.5 | |
| 20260903091533 | 30 | 0.0 | 0.0 | 0.00 | 0.00 | 0.00 | 53 | 1009.5 | |
| 20260903090532 | 30 | 0.0 | 0.0 | 0.00 | 0.00 | 0.00 | 53 | 1009.6 | |
| 20260903085534 | 30 | 0.0 | 0.0 | 0.00 | 0.00 | 0.00 | 53 | 1009.7 | |
| 20260903084523 | 30 | 0.0 | 0.0 | 0.00 | 0.00 | 0.00 | 52 | 1009.7 | |
| 20260903083525 | 30 | 0.0 | 0.0 | 0.00 | 0.00 | 0.00 | 52 | 1009.7 | |
| 20260903082529 | 30 | 157 | 0.0 | 0.0 | 0.00 | 0.00 | 0.00 | 52 | 1009.7 |
| 20260903081528 | 30 | 190 | 0.0 | 1.6 | 0.00 | 0.00 | 0.00 | 52 | 1009.8 |
| 20260903080524 | 30 | 210 | 0.0 | 1.6 | 0.00 | 0.00 | 0.00 | 51 | 1009.8 |
| 20260903075522 | 30 | 228 | 0.0 | 0.0 | 0.00 | 0.00 | 0.00 | 52 | 1009.8 |
| 20260903074521 | 30 | 225 | 0.0 | 0.0 | 0.00 | 0.00 | 0.00 | 52 | 1009.9 |
| 20260903073527 | 30 | 0.0 | 0.0 | 0.00 | 0.00 | 0.00 | 52 | 1009.8 | |
| 20260903072525 | 30 | 0.0 | 0.0 | 0.00 | 0.00 | 0.00 | 52 | 1009.7 | |
| 20260903071540 | 30 | 0.0 | 0.0 | 0.00 | 0.00 | 0.00 | 52 | 1009.7 | |
| 20260903070545 | 30 | 0.0 | 0.0 | 0.00 | 0.00 | 0.00 | 52 | 1009.6 | |
| 20260903065552 | 30 | 0.0 | 0.0 | 0.00 | 0.00 | 0.00 | 51 | 1009.5 | |
| 20260903064524 | 31 | 0.0 | 0.0 | 0.00 | 0.00 | 0.00 | 51 | 1009.5 | |
| 20260903063542 | 31 | 0.0 | 0.0 | 0.00 | 0.00 | 0.00 | 50 | 1009.6 | |
| 20260903062557 | 31 | 0.0 | 0.0 | 0.00 | 0.00 | 0.00 | 50 | 1009.6 | |
| 20260903061542 | 31 | 0.0 | 0.0 | 0.00 | 0.00 | 0.00 | 49 | 1009.7 | |
| 20260903060529 | 31 | 0.0 | 0.0 | 0.00 | 0.00 | 0.00 | 48 | 1009.7 | |
| 20260903055521 | 31 | 0.0 | 0.0 | 0.00 | 0.00 | 0.00 | 48 | 1009.7 | |
| 20260903054527 | 31 | 0.0 | 0.0 | 0.00 | 0.00 | 0.00 | 48 | 1009.7 | |
| 20260903053534 | 31 | 209 | 0.0 | 0.0 | 0.00 | 0.00 | 0.00 | 48 | 1009.7 |
| 20260903052535 | 31 | 336 | 0.0 | 0.0 | 0.00 | 0.00 | 0.00 | 48 | 1009.7 |
| 20260903051544 | 31 | 82 | 0.0 | 0.0 | 0.00 | 0.00 | 0.00 | 48 | 1009.7 |
| 20260903050551 | 31 | 90 | 0.0 | 0.0 | 0.00 | 0.00 | 0.00 | 47 | 1009.7 |
| 20260903045544 | 31 | 214 | 0.0 | 1.6 | 0.00 | 0.00 | 0.00 | 47 | 1009.6 |
| 20260903044551 | 31 | 176 | 1.6 | 1.6 | 0.00 | 0.00 | 0.00 | 47 | 1009.6 |
| 20260903043526 | 31 | 216 | 3.2 | 3.2 | 0.00 | 0.00 | 0.00 | 46 | 1009.6 |
| 20260903042544 | 31 | 206 | 1.6 | 1.6 | 0.00 | 0.00 | 0.00 | 46 | 1009.4 |
| 20260903041521 | 31 | 184 | 1.6 | 1.6 | 0.00 | 0.00 | 0.00 | 46 | 1009.2 |
| 20260903040621 | 31 | 203 | 1.6 | 1.6 | 0.00 | 0.00 | 0.00 | 46 | 1009.1 |
| 20260903035548 | 31 | 80 | 1.6 | 1.6 | 0.00 | 0.00 | 0.00 | 46 | 1009.0 |
| 20260903034527 | 32 | 88 | 0.0 | 1.6 | 0.00 | 0.00 | 0.00 | 46 | 1009.0 |
| 20260903033621 | 32 | 101 | 0.0 | 0.0 | 0.00 | 0.00 | 0.00 | 45 | 1008.8 |
| 20260903032533 | 32 | 233 | 0.0 | 0.0 | 0.00 | 0.00 | 0.00 | 44 | 1008.8 |
| 20260903031552 | 32 | 227 | 0.0 | 0.0 | 0.00 | 0.00 | 0.00 | 43 | 1008.7 |
| 20260903030550 | 32 | 0.0 | 0.0 | 0.00 | 0.00 | 0.00 | 42 | 1008.5 | |
| 20260903025551 | 32 | 0.0 | 0.0 | 0.00 | 0.00 | 0.00 | 42 | 1008.4 | |
| 20260903024536 | 32 | 0.0 | 0.0 | 0.00 | 0.00 | 0.00 | 42 | 1008.3 | |
| 20260903023531 | 33 | 212 | 0.0 | 0.0 | 0.00 | 0.00 | 0.00 | 42 | 1008.2 |
| 20260903022542 | 33 | 248 | 0.0 | 1.6 | 0.00 | 0.00 | 0.00 | 42 | 1008.2 |
| 20260903021542 | 33 | 210 | 0.0 | 0.0 | 0.00 | 0.00 | 0.00 | 41 | 1008.2 |
| 20260903020527 | 33 | 177 | 0.0 | 1.6 | 0.00 | 0.00 | 0.00 | 41 | 1008.2 |
| 20260903015539 | 33 | 207 | 0.0 | 1.6 | 0.00 | 0.00 | 0.00 | 41 | |
| 20260903014526 | 33 | 287 | 0.0 | 0.0 | 0.00 | 0.00 | 0.00 | 41 | 1008.3 |
| 20260903013532 | 33 | 175 | 0.0 | 1.6 | 0.00 | 0.00 | 0.00 | 41 | 1008.1 |
| 20260903012530 | 34 | 88 | 0.0 | 1.6 | 0.00 | 0.00 | 0.00 | 41 | 1008.1 |
| 20260903011524 | 34 | 0.0 | 0.0 | 0.00 | 0.00 | 0.00 | 41 | 1008.0 | |
| 20260903010526 | 34 | 0.0 | 0.0 | 0.00 | 0.00 | 0.00 | 40 | 1007.9 | |
| 20260903005524 | 35 | 253 | 0.0 | 0.0 | 0.00 | 0.00 | 0.00 | 40 | 1008.0 |
| 20260903004523 | 35 | 183 | 1.6 | 1.6 | 0.00 | 0.00 | 0.00 | 40 | 1008.0 |
| 20260903003521 | 35 | 214 | 1.6 | 1.6 | 0.00 | 0.00 | 0.00 | 40 | 1008.1 |
| 20260903002522 | 35 | 0.0 | 0.0 | 0.00 | 0.00 | 0.00 | 40 | 1008.1 | |
| 20260903001527 | 35 | 0.0 | 0.0 | 0.00 | 0.00 | 0.00 | 41 | 1008.1 | |
| 20260903000540 | 35 | 248 | 0.0 | 0.0 | 0.00 | 0.00 | 0.00 | 41 | 1008.1 |
| 20260902235535 | 35 | 0.0 | 0.0 | 0.00 | 0.00 | 0.00 | 41 | 1008.1 | |
| 20260902234546 | 35 | 0.0 | 0.0 | 0.00 | 0.00 | 0.00 | 41 | 1008.1 | |
| 20260902233521 | 35 | 315 | 0.0 | 1.6 | 0.00 | 0.00 | 0.00 | 41 | 1008.1 |
| 20260902232525 | 35 | 9 | 0.0 | 0.0 | 0.00 | 0.00 | 0.00 | 40 | 1008.1 |
| 20260902231531 | 35 | 335 | 0.0 | 0.0 | 0.00 | 0.00 | 0.00 | 40 | 1008.1 |
| 20260902230532 | 35 | 14 | 0.0 | 1.6 | 0.00 | 0.00 | 0.00 | 39 | 1008.3 |
| 20260902225604 | 35 | 322 | 0.0 | 0.0 | 0.00 | 0.00 | 0.00 | 39 | 1008.6 |
| 20260902224524 | 35 | 290 | 0.0 | 1.6 | 0.00 | 0.00 | 0.00 | 39 | 1008.6 |
| 20260902223522 | 36 | 273 | 1.6 | 1.6 | 0.00 | 0.00 | 0.00 | 38 | 1008.7 |
| 20260902222548 | 36 | 277 | 0.0 | 1.6 | 0.00 | 0.00 | 0.00 | 40 | 1008.7 |
| 20260902221534 | 36 | 296 | 1.6 | 1.6 | 0.00 | 0.00 | 0.00 | 40 | 1008.8 |
| 20260902220634 | 36 | 308 | 1.6 | 3.2 | 0.00 | 0.00 | 0.00 | 39 | 1008.9 |
| 20260902215520 | 36 | 334 | 3.2 | 3.2 | 0.00 | 0.00 | 0.00 | 39 | 1009.1 |
| 20260902214529 | 36 | 353 | 1.6 | 1.6 | 0.00 | 0.00 | 0.00 | 38 | 1009.1 |
| 20260902213527 | 36 | 290 | 1.6 | 1.6 | 0.00 | 0.00 | 0.00 | 38 | 1009.0 |
| 20260902212526 | 37 | 319 | 1.6 | 1.6 | 0.00 | 0.00 | 0.00 | 38 | 1009.1 |
| 20260902211524 | 37 | 283 | 1.6 | 3.2 | 0.00 | 0.00 | 0.00 | 38 | 1009.4 |
| 20260902210521 | 37 | 341 | 1.6 | 1.6 | 0.00 | 0.00 | 0.00 | 36 | 1009.6 |
| 20260902205519 | 37 | 273 | 1.6 | 1.6 | 0.00 | 0.00 | 0.00 | 37 | 1009.6 |
| 20260902204530 | 36 | 245 | 1.6 | 1.6 | 0.00 | 0.00 | 0.00 | 38 | 1009.7 |
| 20260902203524 | 37 | 279 | 3.2 | 4.8 | 0.00 | 0.00 | 0.00 | 38 | 1009.8 |
| 20260902202534 | 37 | 275 | 3.2 | 3.2 | 0.00 | 0.00 | 0.00 | 39 | 1009.8 |
| 20260902201540 | 36 | 254 | 1.6 | 1.6 | 0.00 | 0.00 | 0.00 | 38 | 1009.9 |
| 20260902200529 | 37 | 263 | 3.2 | 3.2 | 0.00 | 0.00 | 0.00 | 39 | 1010.1 |
| 20260902195551 | 37 | 304 | 3.2 | 3.2 | 0.00 | 0.00 | 0.00 | 40 | 1010.3 |
| 20260902194525 | 37 | 347 | 3.2 | 3.2 | 0.00 | 0.00 | 0.00 | 40 | 1010.6 |
| 20260902193531 | 37 | 269 | 1.6 | 3.2 | 0.00 | 0.00 | 0.00 | 40 | 1010.9 |
| 20260902192540 | 36 | 308 | 3.2 | 3.2 | 0.00 | 0.00 | 0.00 | 41 | 1011.0 |
| 20260902191525 | 36 | 274 | 1.6 | 3.2 | 0.00 | 0.00 | 0.00 | 41 | 1011.1 |
| 20260902190548 | 36 | 256 | 1.6 | 3.2 | 0.00 | 0.00 | 0.00 | 41 | 1011.3 |
| 20260902185546 | 36 | 301 | 3.2 | 3.2 | 0.00 | 0.00 | 0.00 | 42 | 1011.4 |
| 20260902184531 | 36 | 269 | 1.6 | 1.6 | 0.00 | 0.00 | 0.00 | 42 | 1011.5 |
| 20260902183606 | 36 | 270 | 1.6 | 1.6 | 0.00 | 0.00 | 0.00 | 42 | 1011.6 |
| 20260902182522 | 36 | 281 | 1.6 | 1.6 | 0.00 | 0.00 | 0.00 | 42 | 1011.8 |
| 20260902181551 | 36 | 218 | 1.6 | 1.6 | 0.00 | 0.00 | 0.00 | 42 | 1011.8 |
| 20260902180539 | 36 | 272 | 1.6 | 1.6 | 0.00 | 0.00 | 0.00 | 43 | 1011.9 |
| 20260902175527 | 36 | 248 | 1.6 | 1.6 | 0.00 | 0.00 | 0.00 | 43 | 1011.9 |
| 20260902174544 | 35 | 250 | 1.6 | 1.6 | 0.00 | 0.00 | 0.00 | 44 | 1012.0 |
| 20260902173528 | 35 | 344 | 1.6 | 1.6 | 0.00 | 0.00 | 0.00 | 44 | 1012.1 |
| 20260902172521 | 35 | 298 | 1.6 | 1.6 | 0.00 | 0.00 | 0.00 | 45 | 1012.2 |
| 20260902171550 | 35 | 318 | 1.6 | 1.6 | 0.00 | 0.00 | 0.00 | 45 | 1012.2 |
| 20260902170525 | 34 | 349 | 1.6 | 1.6 | 0.00 | 0.00 | 0.00 | 47 | 1012.2 |
| 20260902165536 | 34 | 334 | 1.6 | 1.6 | 0.00 | 0.00 | 0.00 | 47 | 1012.1 |
| 20260902164534 | 33 | 266 | 1.6 | 1.6 | 0.00 | 0.00 | 0.00 | 47 | 1012.1 |
| 20260902163550 | 33 | 215 | 1.6 | 1.6 | 0.00 | 0.00 | 0.00 | 48 | 1012.1 |
| 20260902162546 | 32 | 233 | 0.0 | 0.0 | 0.00 | 0.00 | 0.00 | 49 | 1012.2 |